Tiempo cada hora Bartkow

Hoy, 3 Marzo, Miércoles

Tiempo Temperatura Precipitaciones Viento Presión Humedad
00:00 +4°C° 0 mm 0 mps 758 mmHg 80%
01:00 +4°C° 0 mm 0 mps 758 mmHg 82%
02:00 +5°C° 0 mm 1 mps 757 mmHg 82%
03:00 +4°C° 0 mm 1 mps 757 mmHg 83%
04:00 +4°C° 0 mm 1 mps 757 mmHg 84%
05:00 +4°C° 0 mm 1 mps 757 mmHg 84%
06:00 +4°C° 0 mm 1 mps 756 mmHg 84%
07:00 +4°C° 0 mm 1 mps 756 mmHg 84%
08:00 +6°C° 0 mm 1 mps 756 mmHg 76%
09:00 +8°C° 0 mm 1 mps 756 mmHg 68%
10:00 +8°C° 0 mm 2 mps 756 mmHg 60%
11:00 +10°C° 0 mm 2 mps 755 mmHg 55%
12:00 +12°C° 0 mm 2 mps 755 mmHg 49%
13:00 +14°C° 0 mm 2 mps 754 mmHg 43%
14:00 +14°C° 0 mm 2 mps 753 mmHg 44%
15:00 +14°C° 0 mm 2 mps 753 mmHg 46%
16:00 +14°C° 0 mm 2 mps 752 mmHg 47%
17:00 +12°C° 0 mm 2 mps 752 mmHg 53%
18:00 +9°C° 0 mm 2 mps 751 mmHg 58%
19:00 +8°C° 0 mm 3 mps 751 mmHg 64%
20:00 +7°C° 0 mm 3 mps 751 mmHg 68%
21:00 +7°C° 0 mm 3 mps 750 mmHg 71%
22:00 +5°C° 0 mm 3 mps 750 mmHg 75%
23:00 +5°C° 0 mm 3 mps 750 mmHg 75%

Mañana, 4 Marzo, Jueves

Tiempo Temperatura Precipitaciones Viento Presión Humedad
00:00 +5°C° 0 mm 3 mps 749 mmHg 75%
01:00 +5°C° 0 mm 3 mps 749 mmHg 74%
02:00 +5°C° 0 mm 3 mps 748 mmHg 76%
03:00 +4°C° 0 mm 4 mps 748 mmHg 78%
04:00 +4°C° 0 mm 4 mps 747 mmHg 81%
05:00 +4°C° 0 mm 4 mps 747 mmHg 84%
06:00 +4°C° 0 mm 4 mps 747 mmHg 88%
07:00 +4°C° 0 mm 4 mps 747 mmHg 91%
08:00 +5°C° 0 mm 5 mps 746 mmHg 83%
09:00 +5°C° 0 mm 6 mps 746 mmHg 76%
10:00 +7°C° 0 mm 6 mps 746 mmHg 68%
11:00 +8°C° 0 mm 6 mps 746 mmHg 64%
12:00 +9°C° 0 mm 6 mps 745 mmHg 59%
13:00 +10°C° 0 mm 6 mps 745 mmHg 55%
14:00 +9°C° 0 mm 6 mps 745 mmHg 59%
15:00 +8°C° 0 mm 6 mps 744 mmHg 63%
16:00 +8°C° 0 mm 6 mps 744 mmHg 67%
17:00 +6°C° 0 mm 5 mps 744 mmHg 70%
18:00 +5°C° 0 mm 5 mps 744 mmHg 74%
19:00 +4°C° 0 mm 4 mps 744 mmHg 77%
20:00 +3°C° 0 mm 4 mps 744 mmHg 77%
21:00 +3°C° 0 mm 3 mps 744 mmHg 77%
22:00 +2°C° 0 mm 3 mps 744 mmHg 77%
23:00 +2°C° 0 mm 3 mps 744 mmHg 80%

Pasado mañana, 5 Marzo, Viernes

Tiempo Temperatura Precipitaciones Viento Presión Humedad
00:00 +2°C° 0 mm 3 mps 744 mmHg 83%
01:00 +1°C° 0 mm 3 mps 745 mmHg 87%
02:00 -1°C° 0.2 mm 4 mps 745 mmHg 87%
03:00 -1°C° 0.2 mm 4 mps 745 mmHg 88%
04:00 -2°C° 0.2 mm 5 mps 745 mmHg 88%
05:00 -2°C° 0 mm 5 mps 746 mmHg 85%
06:00 -3°C° 0 mm 4 mps 747 mmHg 82%
07:00 -3°C° 0 mm 4 mps 747 mmHg 80%
08:00 -2°C° 0 mm 4 mps 748 mmHg 73%
09:00 -1°C° 0 mm 4 mps 748 mmHg 67%
10:00 -1°C° 0 mm 4 mps 748 mmHg 61%
11:00 0°C° 0 mm 4 mps 749 mmHg 56%
12:00 +1°C° 0 mm 4 mps 749 mmHg 50%
13:00 +2°C° 0 mm 3 mps 749 mmHg 45%
14:00 +1°C° 0 mm 4 mps 750 mmHg 45%
15:00 +1°C° 0 mm 4 mps 750 mmHg 45%
16:00 +1°C° 0 mm 4 mps 750 mmHg 45%
17:00 +1°C° 0 mm 3 mps 750 mmHg 49%
18:00 +1°C° 0 mm 3 mps 751 mmHg 54%
19:00 +1°C° 0 mm 2 mps 752 mmHg 58%
20:00 -1°C° 0 mm 2 mps 752 mmHg 61%
21:00 -1°C° 0 mm 3 mps 753 mmHg 63%
22:00 -2°C° 0 mm 3 mps 753 mmHg 66%
23:00 -2°C° 0 mm 3 mps 753 mmHg 67%

6 Marzo, Sábado

Tiempo Temperatura Precipitaciones Viento Presión Humedad
00:00 -2°C° 0 mm 3 mps 754 mmHg 69%
01:00 -4°C° 0 mm 3 mps 754 mmHg 71%
02:00 -4°C° 0 mm 3 mps 754 mmHg 72%
03:00 -4°C° 0 mm 3 mps 755 mmHg 73%
04:00 -4°C° 0 mm 3 mps 755 mmHg 74%
05:00 -4°C° 0 mm 3 mps 755 mmHg 73%
06:00 -4°C° 0 mm 3 mps 756 mmHg 73%
07:00 -3°C° 0 mm 2 mps 756 mmHg 72%
08:00 -2°C° 0 mm 3 mps 757 mmHg 64%
09:00 -1°C° 0 mm 3 mps 757 mmHg 56%
10:00 +1°C° 0 mm 3 mps 757 mmHg 48%
11:00 +1°C° 0 mm 3 mps 757 mmHg 45%
12:00 +2°C° 0 mm 3 mps 757 mmHg 42%
13:00 +2°C° 0 mm 3 mps 757 mmHg 38%
14:00 +2°C° 0 mm 3 mps 757 mmHg 38%
15:00 +2°C° 0 mm 3 mps 757 mmHg 38%
16:00 +2°C° 0 mm 3 mps 756 mmHg 38%
17:00 +1°C° 0 mm 3 mps 756 mmHg 43%
18:00 +1°C° 0 mm 2 mps 756 mmHg 48%
19:00 -1°C° 0 mm 2 mps 756 mmHg 52%
20:00 -2°C° 0 mm 2 mps 756 mmHg 54%
21:00 -2°C° 0 mm 3 mps 756 mmHg 55%
22:00 -2°C° 0 mm 3 mps 756 mmHg 56%
23:00 -2°C° 0 mm 3 mps 755 mmHg 55%

7 Marzo, Domingo

Tiempo Temperatura Precipitaciones Viento Presión Humedad
00:00 -2°C° 0 mm 3 mps 755 mmHg 55%
01:00 -3°C° 0 mm 4 mps 755 mmHg 55%
02:00 -3°C° 0 mm 4 mps 754 mmHg 54%
03:00 -3°C° 0 mm 4 mps 754 mmHg 54%
04:00 -3°C° 0 mm 4 mps 753 mmHg 53%
05:00 -3°C° 0 mm 4 mps 753 mmHg 53%
06:00 -4°C° 0 mm 5 mps 753 mmHg 54%
07:00 -4°C° 0 mm 5 mps 752 mmHg 54%
08:00 -2°C° 0 mm 5 mps 752 mmHg 55%
09:00 -1°C° 0 mm 6 mps 752 mmHg 55%
10:00 +1°C° 0 mm 6 mps 752 mmHg 56%
11:00 +2°C° 0 mm 6 mps 752 mmHg 55%
12:00 +2°C° 0 mm 6 mps 751 mmHg 54%
13:00 +3°C° 0 mm 6 mps 751 mmHg 54%
14:00 +3°C° 0 mm 5 mps 750 mmHg 55%
15:00 +3°C° 0 mm 5 mps 750 mmHg 56%
16:00 +4°C° 0 mm 4 mps 749 mmHg 58%
17:00 +3°C° 0 mm 4 mps 749 mmHg 63%
18:00 +2°C° 0 mm 3 mps 749 mmHg 68%
19:00 +2°C° 0 mm 2 mps 749 mmHg 74%
20:00 +1°C° 0 mm 2 mps 749 mmHg 77%
21:00 +1°C° 0 mm 1 mps 749 mmHg 79%
22:00 +1°C° 0 mm 1 mps 749 mmHg 82%
23:00 +1°C° 0 mm 1 mps 749 mmHg 82%

8 Marzo, Lunes

Tiempo Temperatura Precipitaciones Viento Presión Humedad
00:00 +1°C° 0 mm 1 mps 748 mmHg 82%
01:00 0°C° 0 mm 1 mps 748 mmHg 82%
02:00 +1°C° 0 mm 1 mps 748 mmHg 81%
03:00 -1°C° 0 mm 2 mps 748 mmHg 80%
04:00 -1°C° 0 mm 2 mps 747 mmHg 79%
05:00 -1°C° 0 mm 2 mps 747 mmHg 81%
06:00 -1°C° 0 mm 2 mps 747 mmHg 82%
07:00 -1°C° 0 mm 2 mps 747 mmHg 84%
08:00 -1°C° 0 mm 2 mps 747 mmHg 78%
09:00 0°C° 0 mm 3 mps 748 mmHg 71%
10:00 +1°C° 0 mm 3 mps 748 mmHg 65%
11:00 +2°C° 0 mm 3 mps 748 mmHg 62%
12:00 +2°C° 0 mm 3 mps 748 mmHg 60%
13:00 +3°C° 0 mm 3 mps 748 mmHg 58%
14:00 +2°C° 0 mm 3 mps 748 mmHg 65%
15:00 +2°C° 0 mm 3 mps 748 mmHg 72%
16:00 +1°C° 0 mm 3 mps 748 mmHg 79%
17:00 +1°C° 0.1 mm 3 mps 749 mmHg 82%
18:00 0°C° 0.1 mm 3 mps 749 mmHg 85%
19:00 -1°C° 0.1 mm 3 mps 749 mmHg 88%
20:00 -1°C° 0 mm 3 mps 750 mmHg 84%
21:00 -3°C° 0 mm 4 mps 750 mmHg 79%
22:00 -3°C° 0 mm 4 mps 751 mmHg 75%
23:00 -4°C° 0 mm 4 mps 751 mmHg 74%
Mostrar más

Necesitamos Su Consentimiento

Meteoprog y nuestros Proveedores de Servicios pueden almacenar y acceder a sus datos personales como cookies, identificadores de dispositivo u otras tecnologías similares de su dispositivo y procesar dichos datos para personalizar contenido y anuncios, además de ofrecer funciones de redes sociales y analizar el tráfico.

  • Almacenar y/o acceder a información en su dispositivo

    Se puede almacenar o acceder a cookies, identificadores de dispositivo u otra información de su dispositivo para los fines anteriormente indicados.

  • Anuncios y contenido personalizados, medición de anuncios y contenido, percepciones del público, y desarrollo de productos

    Los anuncios y el contenido pueden personalizarse en base a su perfil. Se pueden añadir más datos para personalizar mejor los anuncios y contenidos. Se puede medir el rendimiento de los anuncios y contenidos. Se puede obtener la percepción sobre el público que ha visto los anuncios y contenidos. Dichos datos pueden usarse para desarrollar o mejorar la experiencia del usuario, sistemas y software.

Al hacer clic en ‘Estoy De Acuerdo’ usted permitirá el uso de las cookies, identificadores de dispositivo, balizas web u otras tecnologías similares indicadas. Su configuración puede cambiarse desde el navegador de su dispositivo.

Para ciertos fines, los intereses legítimos pueden ser considerados por encima del consentimiento. Puede leer más sobre ello en nuestra Política de Privacidad y Cookies.